Showing default

HJ-2F, 57519

Orbit data source: Space-Track

HJ-2F, 57519 is a payload satellite owned by CRESDA (CN) in SSO that was launched on Tue, 08 Aug 2023 UTC via a CHANG ZHENG 2C launch vehicle from the Taiyaun Space Center, China (TSC). Payload-class satellites include a variety of spacecraft equipped with specific instruments for various scientific and technological missions. These include communications satellites like Starlink; space stations such as the ISS; scientific satellites like the Hubble; Earth observation satellites from companies like Planet Labs, Umbra, and HawkEye 360; GPS; miniature CubeSats for education and research; and military/defense satellites.

Loading next visibility...
Identifier
57519, 2023-116A
Orbit
SSO
Country
Flag of CNCN / PRC
Related business
Manufacturer
DFH
Mission
Operational Civil Earth Obs Sci
Bus & Motor
CAST-2000, Unknown motor
Mass
510 kg wet, 510 kg dry
Launch date (UTC)
2023-08-08 (3 years ago)
Launch vehicle
CHANG ZHENG 2C
Launch site
Taiyaun Space Center, China (TSC)
Object type
Payload
Rocket body
Debris
Shape & HBR
Box + 2 Pan, 2.0 m
Radar Cross Section
2.715 m², Large (>1 m²)

Expand to show TLE details & history
Last TLE update: 22 hours ago

TLE from 22 hours ago
0 HJ-2F
1 57519U 23116A   26172.52492000  .00005835  00000-0  25550-3 0  9991
2 57519  97.3847 177.6678 0009426  39.0798 321.1118 15.22372221159410
Epoch: 2026-06-21T12:35Z
TLE epoch observation values (Epoch: 2026-06-21T12:35:53.088Z)
Latitude
0.00003°
Longitude
78.97265°
Altitude
496.737 km
Speed
7.619 km/s
True Right ascension
11h 50m 40s
True Declination
0° 00' 00"
Sunlit
Object was in daylight at epoch
Visualization orbit readout
Latitude
Unknown
Longitude
Unknown
Altitude
Unknown
Speed
Unknown
Apparent Right ascension
Unknown
Apparent Declination
Unknown
Sunlit
N/A
Visualization observer readout
Local Sidereal Time
21:28:15
Azimuth
Unknown
Elevation
Unknown
Doppler factor
Unknown
Orbital elements
Apogee altitude
502.128 km
Perigee altitude
489.17 km
Semi-major axis
6,873.786 km
Eccentricity
0.00094
Inclination
97.3847°
RAAN
177.6678°
Arg. of periapsis
39.0798°
True anomaly
321.04393°
Mean anomaly
321.1118°
Eccentric anomaly
321.07787°
Mean motion
3.80846 °/min
Orbital period
94.53 mins
BSTAR
0.0002555
Loading maneuver chart data...
Computing Atmospheric mass density...
Loading historical data...
Loading historical data...
Loading historical data...
Loading historical data...
Loading historical data...
Loading historical data...
Loading historical data...

Documentation

Showing up to 5 results
|